SCOUT A R/B, 2967

Orbit data source: Space-Track

SCOUT A R/B, 2967 is space debris in LEO originally from a launch on Mon, 25 Sep 1967 UTC launched from the Air Force Western Test Range (AFWTR). Debris objects in space refer to the collection of defunct objects orbiting the Earth. Examples of debris include non-operational satellites, rocket bodies, and fragments generated from explosions, collisions, or faulty payload assembly.

Loading next visibility...
Identifier
2967, 1967-092B
Orbit
LEO
Last TLE update
18 hours ago
Origin
Manufacturer
ABL
Mission
Spacecraft
Bus & Motor
ALTAIR, Unknown motor
Mass
33 kg wet, 33 kg dry
Launch date (UTC)
1967-09-25 (58 years ago)
Launch vehicle
Unknown
Launch site
Air Force Western Test Range (AFWTR)
Object type
Payload
Rocket body
Debris
Shape & HBR
Cyl, 1.5 m
Radar Cross Section
0.687 m², Medium (>0.1 m² and < 1m²)

Expand to show TLE details & history

TLE from 18 hours ago
0 SCOUT A R/B
1 02967U 67092B   25167.06693951  .00000119  00000-0  16169-3 0  9995
2 02967  89.2442  36.9289 0048641  83.1348  88.6609 13.52334390845447
Epoch: 2025-06-16T01:36Z
TLE epoch observation values (Epoch: 2025-06-16T01:36:23.573Z)
Latitude
7.57662°
Longitude
-71.85235°
Altitude
1,065.306 km
Speed
7.32 km/s
True Right ascension
14h 27m 18s
True Declination
7° 32' 01"
Sunlit
Object was in full shadow at epoch
Visualization orbit readout
Latitude
47.73063°
Longitude
-72.6356°
Altitude
1,048.454 km
Speed
7.343 km/s
Apparent Right ascension
16h 06m 19s
Apparent Declination
8° 56' 17"
Sunlit
Object is in daylight
Visualization observer readout
Local Sidereal Time
05:50:47
Azimuth
32.286° NE
Elevation
-35.493°
Doppler factor
1
Orbital elements
Apogee altitude
1,096.913 km
Perigee altitude
1,024.547 km
Semi-major axis
7,438.867 km
Eccentricity
0.00486
Inclination
89.2442°
RAAN
36.9289°
Arg. of periapsis
83.1348°
True anomaly
Unknown
Mean anomaly
88.6609°
Eccentric anomaly
Unknown
Mean motion
3.38285 °/min
Orbital period
106.42 mins
BSTAR
0.00016169
Loading maneuver chart data...
Loading SW <> Apogee altitude chart data...
Loading historical data...
Loading historical data...
Loading historical data...
Loading historical data...
Loading historical data...
Loading historical data...
Loading historical data...

SCOUT A R/B Visibility forecast

Observer location: undefined°, undefined°

Span
Click to sort rows by Start time (UTC) header in descending order
Start Az.
Max El. time (UTC)
Max El. Az.
Max El.
End time (UTC)
End Az.
8 mins2025-06-17 02:14:03.108Z36.476° NE2025-06-17 02:18:03.108Z77.612° E18.977°2025-06-17 02:22:03.108Z119.191° SE
11 mins2025-06-17 04:00:03.108Z351.021° N2025-06-17 04:05:03.108Z271.844° WNW41.316°2025-06-17 04:11:03.108Z197.857° SSW
6 mins2025-06-17 14:13:03.108Z101.862° ESE2025-06-17 14:16:03.108Z69.803° E17.028°2025-06-17 14:19:03.108Z39.34° NE
11 mins2025-06-17 15:56:03.108Z188.623° SSW2025-06-17 16:01:03.108Z245.615° WSW42.64°2025-06-17 16:07:03.108Z352.537° N
|